STARLINK-11459, 62464

Orbit data source: Space-Track

STARLINK-11459, 62464 is a payload satellite owned by SpaceX/Seattle (US) in LEO that was launched on Tue, 31 Dec 2024 UTC via an FALCON 9 launch vehicle from the Air Force Eastern Test Range (AFETR). Payload-class satellites include a variety of spacecraft equipped with specific instruments for various scientific and technological missions. These include communications satellites like Starlink; space stations such as the ISS; scientific satellites like the Hubble; Earth observation satellites from companies like Planet Labs, Umbra, and HawkEye 360; GPS; miniature CubeSats for education and research; and military/defense satellites.

Loading next visibility...
Identifier
62464, 2024-254C
Orbit
LEO
Country
Flag of USUS
Related business
Manufacturer
SpaceX/Seattle
Mission
Operational Commercial Communications
Bus & Motor
STARLINK V2MD, Unknown motor
Mass
960 kg wet, ~910 kg dry
Launch date (UTC)
2024-12-31 (10 months ago)
Launch vehicle
FALCON 9
Launch site
Air Force Eastern Test Range (AFETR)
Object type
Payload
Rocket body
Debris
Shape & HBR
Box + 2 Pan, 18.1 m
Radar Cross Section
36.964 m², Large (>1 m²)

Expand to show TLE details & history
Last TLE update: 19 hours ago

TLE from 19 hours ago
0 STARLINK-11459
1 62464U 24254C   25291.26400410  .00378098  00000-0  27898-2 0  9996
2 62464  42.9987   1.2698 0002690 231.0090 129.0538 15.71081157 46993
Epoch: 2025-10-18T06:20Z
TLE epoch observation values (Epoch: 2025-10-18T06:20:09.954Z)
Latitude
-0.00003°
Longitude
-120.76923°
Altitude
356.718 km
Speed
7.696 km/s
True Right ascension
00h 05m 04s
True Declination
0° 00' 00"
Sunlit
Object was in full shadow at epoch
Visualization orbit readout
Latitude
Unknown
Longitude
Unknown
Altitude
Unknown
Speed
Unknown
Apparent Right ascension
Unknown
Apparent Declination
Unknown
Sunlit
N/A
Visualization observer readout
Local Sidereal Time
19:52:55
Azimuth
Unknown
Elevation
Unknown
Doppler factor
Unknown
Orbital elements
Apogee altitude
359.6 km
Perigee altitude
355.976 km
Semi-major axis
6,735.925 km
Eccentricity
0.00027
Inclination
42.9987°
RAAN
1.2698°
Arg. of periapsis
231.009°
True anomaly
129.07773°
Mean anomaly
129.0538°
Eccentric anomaly
129.06577°
Mean motion
3.92597 °/min
Orbital period
91.7 mins
BSTAR
0.0027898
Loading maneuver chart data...
Computing Atmospheric mass density...
Loading historical data...
Loading historical data...
Loading historical data...
Loading historical data...
Loading historical data...
Loading historical data...
Loading historical data...

Documentation

Showing up to 5 results
|